Dati Storici

Data ora Umidita' aria (%) Temperatura aria (°C) Rad globale (W/m²) Gonioanemometro (°) Tacoanemometro (m/s) Pioggia (mm)
26-06-2019 22:40 57.2 % 29.07 215.174 0.628 0 0
26-06-2019 22:30 55.9 % 29.439 237.314 0.849 0 0
26-06-2019 22:20 55.2 % 29.646 196.155 1.033 0 0
26-06-2019 22:10 54.4 % 29.63 215.227 1.276 0 0
26-06-2019 22:00 54.4 % 29.787 209.073 2.505 0 0
26-06-2019 21:50 55.1 % 30.026 216.816 0.905 0 0
26-06-2019 21:40 56 % 30.076 231.102 1.689 0 0
26-06-2019 21:30 60.2 % 29.825 208.129 0.598 0 0
26-06-2019 21:20 60.5 % 30.177 263.838 0.922 0 0
26-06-2019 21:10 60.7 % 30.267 110.482 0.56 0 0
26-06-2019 21:00 60.9 % 30.363 200.703 0.574 0 0
26-06-2019 20:50 59.3 % 30.299 189.238 1.421 0 0
26-06-2019 20:40 56.8 % 30.292 192.757 0.716 0 0
26-06-2019 20:30 53.7 % 30.772 175.238 0.278 0 0
26-06-2019 20:20 51.7 % 30.953 88.492 1.353 0 0
26-06-2019 20:10 48.3 % 31.143 26.734 0.856 0 0
26-06-2019 20:00 46.2 % 31.303 198.894 1.219 0 0
26-06-2019 19:50 46 % 31.259 156.317 1.67 0 0
26-06-2019 19:40 46.8 % 31.303 191.58 1.085 0 0
26-06-2019 19:30 49.3 % 31.512 213.604 0.376 0 0

I dati sono presentati in modo automatico a scopo informativo. In seguito a verifica i dati possono subire modifiche o essere invalidati e non riportati negli archivi definitivi.